This is the latest recevied weather packets stored in our database for station/object EA5AER-5. If no packets are shown the sender has not sent any weather packets the latest 10 day(s).
| Time | Temp. | Humidity | Pressure | Rain* | Wind** | Luminosity | Snow |
|---|---|---|---|---|---|---|---|
| 1777273672 | 15.56° C | 65% | 1016.7 hPa | 0 mm | - | 130 W/m² | - |
| 1777272528 | 15.56° C | 65% | 1016.7 hPa | 0 mm | - | 130 W/m² | - |
| 1777271199 | 15° C | 64% | 1016.7 hPa | 0 mm | - | 125 W/m² | - |
| 1777269968 | 14.44° C | 62% | 1016.6 hPa | 0 mm | - | 81 W/m² | - |
| 1777268828 | 14.44° C | 63% | 1016.5 hPa | 0 mm | - | 25 W/m² | - |
| 1777267524 | 14.44° C | 59% | 1016.4 hPa | 0 mm | - | 18 W/m² | - |
| 1777266385 | 13.89° C | 48% | 1016.2 hPa | 0 mm | - | 0 W/m² | - |
| 1777265283 | 13.89° C | 48% | 1016.2 hPa | 0 mm | - | 0 W/m² | - |
| 1777264094 | 15° C | 45% | 1016.3 hPa | 0 mm | - | 0 W/m² | - |
| 1777262826 | 15° C | 45% | 1016.3 hPa | 0 mm | - | 0 W/m² | - |
| 1777261657 | 15° C | 45% | 1016.3 hPa | 0 mm | - | 0 W/m² | - |
| 1777260448 | 15.56° C | 55% | 1016.5 hPa | 0 mm | - | 0 W/m² | - |
| 1777259177 | 15.56° C | 55% | 1016.5 hPa | 0 mm | - | 0 W/m² | - |
| 1777258032 | 15.56° C | 55% | 1016.5 hPa | 0 mm | - | 0 W/m² | - |
| 1777256855 | 15.56° C | 58% | 1016.5 hPa | 0 mm | - | 0 W/m² | - |
| 1777255564 | 15.56° C | 58% | 1016.5 hPa | 0 mm | - | 0 W/m² | - |
| 1777254365 | 13.89° C | 60% | 1016.9 hPa | 0 mm | - | 0 W/m² | - |
| 1777253183 | 13.89° C | 60% | 1016.9 hPa | 0 mm | - | 0 W/m² | - |
| 1777252012 | 13.89° C | 30% | 1017.2 hPa | 0 mm | - | 0 W/m² | - |
| 1777250908 | 13.89° C | 30% | 1017.2 hPa | 0 mm | - | 0 W/m² | - |
| 1777249689 | 15° C | 35% | 1017.4 hPa | 0 mm | - | 0 W/m² | - |
| 1777248479 | 14.44° C | 37% | 1017.4 hPa | 0 mm | - | 0 W/m² | - |
| 1777247234 | 14.44° C | 42% | 1017.4 hPa | 0 mm | - | 0 W/m² | - |
| 1777246090 | 15° C | 55% | 1017.5 hPa | 0 mm | - | 0 W/m² | - |
| 1777244864 | 15.56° C | 58% | 1017.6 hPa | 0 mm | - | 0 W/m² | - |
* Rain latest hour (hover to see other rain measurements)
** Current wind speed in m/s (hover to see current wind gust speed)